Regional Weather Roundup
Issued by NWS

Home | Current Version | Previous Version | Text Only | Print | Product List | Glossary On
Versions: 1 2 3 4 5 6 7 8 9 10 11 12 13 14 15 16 17 18 19 20 21 22 23 24 25 26 27 28 29 30 31 32 33 34 35 36 37 38 39 40 41 42 43 44 45 46 47 48 49 50
000
ASUS44 KMEG 251410
RWRTN
TENNESSEE HOURLY STATE WEATHER ROUNDUP
NATIONAL WEATHER SERVICE MEMPHIS TN
900 AM CDT SAT MAR 25 2017

TNZ002-004-019-021-049-052-054-088>092-251500-
WEST TENNESSEE

CITY           SKY/WX    TMP DP  RH WIND       PRES   REMARKS
MEMPHIS INTL   LGT RAIN  60  58  92 S12       29.95R
NWS MEMPHIS      N/A     60 N/A N/A MISG        N/A
JACKSON        LGT RAIN  60  57  89 S8G18     29.98R
DYERSBURG      LGT RAIN  59  57  93 SE9       29.96R
SOMERVILLE     PTSUNNY   61  57  88 S12G23    29.96R
BOLIVAR        PTSUNNY   59  57  94 SE15G23   29.99R
PARIS          CLOUDY    61  52  72 SE18      29.98F
HUNTINGDON     MOSUNNY   61  55  82 S15G21    30.00S
SAVANNAH       CLOUDY    63  57  82 S13G22    30.05R
$$

TNZ008-025-027-028-033-062-065-066-251500-
NORTH MIDDLE TENNESSEE

CITY           SKY/WX    TMP DP  RH WIND       PRES   REMARKS
NASHVILLE      CLOUDY    68  51  54 S23G29    30.10R
PORTLAND       SUNNY     68  52  56 S22G35    30.09S
CLARKSVILLE    PTSUNNY   69  51  52 S12G25    30.03F
SMYRNA         CLOUDY    67  52  58 S14G22    30.12R
COOKEVILLE     SUNNY     64  50  59 S12G17    30.16R
GALLATIN       SUNNY     68  52  56 S13G20    30.14S
CROSSVILLE     MOSUNNY   59  49  69 S14G24    30.21S
$$

TNZ061-075-076-078-094-096-097-251500-
SOUTH MIDDLE TENNESSEE

CITY           SKY/WX    TMP DP  RH WIND       PRES   REMARKS
FAYETTEVILLE   SUNNY     64  52  63 S21G31    30.15S
TULLAHOMA      SUNNY     64  46  52 S18       30.15F
WINCHESTER     SUNNY     64  52  63 SE9       30.18F
MCMINNVILLE    SUNNY     64  52  63 VRB5      30.16S
COLUMBIA       SUNNY     66  55  68 S16G31    30.08S
SHELBYVILLE    SUNNY     68  54  60 S17       30.13S
$$

TNZ017-018-042-046-047-251500-
NORTHEAST TENNESSEE

CITY           SKY/WX    TMP DP  RH WIND       PRES   REMARKS
TRI CITIES     PTSUNNY   60  49  66 CALM      30.27S
ELIZABETHTON   PTSUNNY   59  48  67 CALM      30.28R
$$

TNZ012-013-036-069-073-074-251500-
CENTRAL EAST TENNESSEE

CITY           SKY/WX    TMP DP  RH WIND       PRES   REMARKS
KNOXVILLE      PTSUNNY   64  49  57 SW8       30.23S
OAK RIDGE      SUNNY     65  49  56 VRB5      30.25S
DOWNTOWN KNOXV SUNNY     57  52  82 SE3       30.25S
GATLINBURG     SUNNY     59  48  67 VRB3      30.23S
MORRISTOWN     SUNNY     61  50  67 CALM      30.24S
JACKSBORO      SUNNY     64  48  55 SW16G23   30.25F
$$

TNZ083-085-099-251500-
SOUTHEAST TENNESSEE

CITY           SKY/WX    TMP DP  RH WIND       PRES   REMARKS
CHATTANOOGA    CLOUDY    64  51  62 SE12      30.23F
$$

SKY/WX REPORTED AS FAIR MEANS FEW OR NO CLOUDS BELOW
12 THOUSAND FEET.




USA.gov is the U.S. government's official web portal to all federal, state and local government web resources and services.